GSAT-7

Last updated on Sun Nov 02 2025 00:02:48 GMT+0000 (Coordinated Universal Time)

1 39234U 13044B 25305.55383703 -.00000066 00000+0 00000+0 0 9993 2 39234 0.0559 76.0501 0006856 185.4100 53.0383 1.00271217 42970
UTC large
Height (km)
Speed (km/s)
/
Latitude / Longitude
Inclination (degrees)
Orbital Period (minutes)
Azimuth
Elevation
Range (km)
Doppler Factor

Next 0 passes for location: London (51.5072 / 0.1276)

Sorry there are no passes over London.